Location: Deurze
(52.9838°N, 6.6090°E)
Time: 18:55:43
(UTC+00:00)

NOSS 3-2 (C) - Pass Details

Date: 11 March 2026
Orbit: 672 x 1536 km, 63.4° (Epoch: 2 January)

Event Time Altitude Azimuth Distance (km) Brightness Sun altitude
Rises 20:52:37 0° 245° (WSW) 3,180 6.5 -29.3°
Reaches altitude 10° 20:54:52 10° 250° (WSW) 2,334 5.8 -29.6°
Maximum altitude 21:00:07 56° 328° (NNW) 1,048 3.8 -30.2°
Drops below altitude 10° 21:06:36 10° 47° (NE) 2,860 5.9 -30.9°
Sets 21:09:37 0° 52° (NE) 3,961 6.6 -31.2°
